When you browse on this site, cookies collect data to enhance your experience and personalize the content and advertising you see.
Visit our Privacy Policy to learn more. By continuing to use the site, you agree to this use of cookies and data.
  • In Schweiz
  • Länderverzeichnis
  • Für 7 Tage
  • Wassertemperatur
  • Wetterkarte
  • Widgets
  • user-avatar
    Anmelden

    Stündliche Wetter Cordoba

    Heute, 3 Juni, Mittwoch

    Zeit Temperatur Niederschläge Wind Luftdruck Luftfeuchtigkeit
    00:00 +8°C° 0 mm 4 m/S 724 mmHg 55%
    01:00 +8°C° 0 mm 4 m/S 724 mmHg 57%
    02:00 +8°C° 0 mm 3 m/S 724 mmHg 60%
    03:00 +8°C° 0 mm 3 m/S 724 mmHg 63%
    04:00 +7°C° 0 mm 3 m/S 724 mmHg 67%
    05:00 +7°C° 0 mm 3 m/S 724 mmHg 70%
    06:00 +7°C° 0 mm 2 m/S 724 mmHg 70%
    07:00 +7°C° 0 mm 2 m/S 725 mmHg 70%
    08:00 +7°C° 0 mm 2 m/S 725 mmHg 71%
    09:00 +8°C° 0 mm 2 m/S 726 mmHg 66%
    10:00 +10°C° 0 mm 2 m/S 726 mmHg 61%
    11:00 +12°C° 0 mm 2 m/S 726 mmHg 56%
    12:00 +12°C° 0 mm 2 m/S 726 mmHg 57%
    13:00 +12°C° 0 mm 2 m/S 726 mmHg 57%
    14:00 +12°C° 0 mm 2 m/S 726 mmHg 58%
    15:00 +10°C° 0 mm 2 m/S 726 mmHg 60%
    16:00 +10°C° 0 mm 2 m/S 726 mmHg 63%
    17:00 +10°C° 0 mm 2 m/S 727 mmHg 65%
    18:00 +10°C° 0 mm 3 m/S 727 mmHg 67%
    19:00 +10°C° 0 mm 3 m/S 728 mmHg 68%
    20:00 +9°C° 0 mm 3 m/S 729 mmHg 70%
    21:00 +9°C° 0.1 mm 3 m/S 729 mmHg 72%
    22:00 +9°C° 0.1 mm 2 m/S 730 mmHg 73%
    23:00 +9°C° 0.1 mm 2 m/S 730 mmHg 74%

    Morgen, 4 Juni, Donnerstag

    Zeit Temperatur Niederschläge Wind Luftdruck Luftfeuchtigkeit
    00:00 +9°C° 0.1 mm 2 m/S 730 mmHg 75%
    01:00 +9°C° 0.1 mm 2 m/S 730 mmHg 75%
    02:00 +9°C° 0.1 mm 2 m/S 730 mmHg 76%
    03:00 +10°C° 0.1 mm 1 m/S 730 mmHg 75%
    04:00 +10°C° 0.1 mm 1 m/S 729 mmHg 75%
    05:00 +10°C° 0.1 mm 1 m/S 729 mmHg 74%
    06:00 +11°C° 0 mm 1 m/S 729 mmHg 73%
    07:00 +11°C° 0 mm 1 m/S 729 mmHg 72%
    08:00 +11°C° 0 mm 1 m/S 730 mmHg 71%
    09:00 +12°C° 0 mm 1 m/S 729 mmHg 66%
    10:00 +13°C° 0 mm 2 m/S 729 mmHg 62%
    11:00 +14°C° 0 mm 2 m/S 729 mmHg 57%
    12:00 +15°C° 0 mm 2 m/S 729 mmHg 54%
    13:00 +16°C° 0 mm 2 m/S 728 mmHg 51%
    14:00 +16°C° 0 mm 1 m/S 727 mmHg 48%
    15:00 +16°C° 0 mm 2 m/S 727 mmHg 50%
    16:00 +15°C° 0 mm 2 m/S 727 mmHg 52%
    17:00 +15°C° 0 mm 2 m/S 727 mmHg 54%
    18:00 +14°C° 0.1 mm 2 m/S 727 mmHg 58%
    19:00 +13°C° 0.1 mm 1 m/S 727 mmHg 62%
    20:00 +13°C° 0.1 mm 1 m/S 727 mmHg 67%
    21:00 +12°C° 0 mm 1 m/S 727 mmHg 69%
    22:00 +12°C° 0 mm 1 m/S 728 mmHg 71%
    23:00 +12°C° 0 mm 1 m/S 728 mmHg 73%

    übermorgen, 5 Juni, Freitag

    Zeit Temperatur Niederschläge Wind Luftdruck Luftfeuchtigkeit
    00:00 +11°C° 0.5 mm 1 m/S 728 mmHg 76%
    01:00 +11°C° 0.5 mm 1 m/S 727 mmHg 79%
    02:00 +10°C° 0.5 mm 2 m/S 727 mmHg 82%
    03:00 +10°C° 0.2 mm 2 m/S 727 mmHg 80%
    04:00 +10°C° 0.2 mm 2 m/S 727 mmHg 79%
    05:00 +10°C° 0.2 mm 2 m/S 727 mmHg 77%
    06:00 +10°C° 0.1 mm 2 m/S 727 mmHg 76%
    07:00 +10°C° 0.1 mm 2 m/S 726 mmHg 74%
    08:00 +10°C° 0.1 mm 2 m/S 726 mmHg 72%
    09:00 +13°C° 0 mm 2 m/S 726 mmHg 64%
    10:00 +15°C° 0 mm 2 m/S 726 mmHg 56%
    11:00 +17°C° 0 mm 3 m/S 726 mmHg 47%
    12:00 +17°C° 0 mm 3 m/S 726 mmHg 43%
    13:00 +18°C° 0 mm 3 m/S 725 mmHg 39%
    14:00 +19°C° 0 mm 3 m/S 725 mmHg 34%
    15:00 +18°C° 0 mm 3 m/S 724 mmHg 37%
    16:00 +17°C° 0 mm 2 m/S 724 mmHg 39%
    17:00 +16°C° 0 mm 2 m/S 724 mmHg 42%
    18:00 +15°C° 0 mm 2 m/S 724 mmHg 46%
    19:00 +14°C° 0 mm 1 m/S 724 mmHg 50%
    20:00 +13°C° 0 mm 1 m/S 724 mmHg 54%
    21:00 +12°C° 0 mm 1 m/S 725 mmHg 55%
    22:00 +12°C° 0 mm 1 m/S 725 mmHg 56%
    23:00 +12°C° 0 mm 1 m/S 725 mmHg 57%

    6 Juni, Samstag

    Zeit Temperatur Niederschläge Wind Luftdruck Luftfeuchtigkeit
    00:00 +11°C° 0 mm 1 m/S 724 mmHg 58%
    01:00 +11°C° 0 mm 1 m/S 724 mmHg 59%
    02:00 +10°C° 0 mm 0 m/S 724 mmHg 60%
    03:00 +9°C° 0 mm 0 m/S 724 mmHg 60%
    04:00 +9°C° 0 mm 0 m/S 723 mmHg 60%
    05:00 +9°C° 0 mm 0 m/S 723 mmHg 60%
    06:00 +10°C° 0 mm 1 m/S 723 mmHg 59%
    07:00 +11°C° 0 mm 1 m/S 724 mmHg 57%
    08:00 +11°C° 0 mm 1 m/S 724 mmHg 56%
    09:00 +13°C° 0 mm 2 m/S 724 mmHg 50%
    10:00 +16°C° 0 mm 2 m/S 724 mmHg 44%
    11:00 +18°C° 0 mm 3 m/S 724 mmHg 38%
    12:00 +19°C° 0 mm 3 m/S 724 mmHg 36%
    13:00 +21°C° 0 mm 3 m/S 723 mmHg 33%
    14:00 +22°C° 0 mm 3 m/S 723 mmHg 31%
    15:00 +21°C° 0 mm 3 m/S 723 mmHg 34%
    16:00 +19°C° 0 mm 3 m/S 722 mmHg 38%
    17:00 +18°C° 0 mm 2 m/S 722 mmHg 41%
    18:00 +17°C° 0 mm 2 m/S 723 mmHg 45%
    19:00 +15°C° 0 mm 2 m/S 723 mmHg 49%
    20:00 +14°C° 0 mm 1 m/S 724 mmHg 54%
    21:00 +13°C° 0 mm 1 m/S 724 mmHg 55%
    22:00 +12°C° 0 mm 1 m/S 724 mmHg 56%
    23:00 +12°C° 0 mm 1 m/S 725 mmHg 58%

    7 Juni, Sonntag

    Zeit Temperatur Niederschläge Wind Luftdruck Luftfeuchtigkeit
    00:00 +12°C° 0 mm 1 m/S 725 mmHg 59%
    01:00 +10°C° 0 mm 0 m/S 725 mmHg 59%
    02:00 +10°C° 0 mm 0 m/S 725 mmHg 60%
    03:00 +10°C° 0 mm 0 m/S 725 mmHg 62%
    04:00 +10°C° 0 mm 1 m/S 725 mmHg 63%
    05:00 +10°C° 0 mm 1 m/S 725 mmHg 64%
    06:00 +10°C° 0 mm 1 m/S 726 mmHg 64%
    07:00 +11°C° 0 mm 1 m/S 726 mmHg 63%
    08:00 +11°C° 0 mm 1 m/S 727 mmHg 63%
    09:00 +14°C° 0 mm 2 m/S 727 mmHg 57%
    10:00 +15°C° 0 mm 4 m/S 727 mmHg 51%
    11:00 +17°C° 0 mm 5 m/S 727 mmHg 45%
    12:00 +19°C° 0 mm 5 m/S 727 mmHg 44%
    13:00 +20°C° 0 mm 5 m/S 726 mmHg 42%
    14:00 +20°C° 0 mm 5 m/S 725 mmHg 41%
    15:00 +19°C° 0 mm 5 m/S 725 mmHg 45%
    16:00 +18°C° 0 mm 4 m/S 725 mmHg 49%
    17:00 +17°C° 0 mm 4 m/S 725 mmHg 54%
    18:00 +16°C° 0 mm 3 m/S 725 mmHg 59%
    19:00 +14°C° 0 mm 3 m/S 725 mmHg 64%
    20:00 +13°C° 0 mm 3 m/S 725 mmHg 69%
    21:00 +12°C° 0 mm 3 m/S 725 mmHg 69%
    22:00 +12°C° 0 mm 3 m/S 725 mmHg 70%
    23:00 +12°C° 0 mm 3 m/S 726 mmHg 71%

    8 Juni, Montag

    Zeit Temperatur Niederschläge Wind Luftdruck Luftfeuchtigkeit
    00:00 +12°C° 0 mm 3 m/S 725 mmHg 72%
    01:00 +12°C° 0 mm 3 m/S 725 mmHg 73%
    02:00 +12°C° 0 mm 3 m/S 725 mmHg 73%
    03:00 +12°C° 0 mm 2 m/S 725 mmHg 75%
    04:00 +12°C° 0 mm 2 m/S 725 mmHg 77%
    05:00 +12°C° 0 mm 2 m/S 724 mmHg 79%
    06:00 +12°C° 0 mm 2 m/S 724 mmHg 78%
    07:00 +12°C° 0 mm 2 m/S 725 mmHg 77%
    08:00 +12°C° 0 mm 2 m/S 725 mmHg 76%
    09:00 +15°C° 0 mm 2 m/S 725 mmHg 67%
    10:00 +17°C° 0 mm 3 m/S 724 mmHg 59%
    11:00 +19°C° 0 mm 3 m/S 724 mmHg 51%
    12:00 +20°C° 0 mm 3 m/S 724 mmHg 49%
    13:00 +21°C° 0 mm 4 m/S 723 mmHg 46%
    14:00 +22°C° 0 mm 4 m/S 722 mmHg 44%
    15:00 +21°C° 0 mm 4 m/S 722 mmHg 49%
    16:00 +20°C° 0 mm 4 m/S 721 mmHg 55%
    17:00 +19°C° 0 mm 3 m/S 721 mmHg 60%
    18:00 +17°C° 0 mm 3 m/S 721 mmHg 66%
    19:00 +16°C° 0 mm 3 m/S 721 mmHg 72%
    20:00 +14°C° 0 mm 3 m/S 721 mmHg 78%
    21:00 +15°C° 0 mm 2 m/S 721 mmHg 80%
    22:00 +15°C° 0 mm 2 m/S 721 mmHg 82%
    23:00 +14°C° 0 mm 2 m/S 721 mmHg 83%
    Mehr zeigen